Regional Weather Roundup
Issued by NWS Green Bay, WI

Home | Current Version | Previous Version | Text Only | Print | Product List | Glossary On
Versions: 1 2 3 4 5 6 7 8 9 10 11 12 13 14 15 16 17 18 19 20 21 22 23 24 25 26 27 28 29 30 31 32 33 34 35 36 37 38 39 40 41 42 43 44 45 46 47 48 49 50
000
ASUS43 KGRB 232311
RWRGRB

NORTH-CENTRAL AND NORTHEAST WISCONSIN REGIONAL WEATHER ROUNDUP
NATIONAL WEATHER SERVICE GREEN BAY WI
600 PM CDT SUN APR 23 2017

WIZ005-009-010>012-018-019-240000-
NORTH CENTRAL WISCONSIN

CITY           SKY/WX    TMP DP  RH WIND       PRES   REMARKS
IRONWOOD       CLOUDY    38  31  76 E9        30.11F
MANITOWISH WTR CLOUDY    40  34  79 E8        30.07F
ARBOR VITAE    PTSUNNY   43  35  73 NE9       30.06F
EAGLE RIVER    MOSUNNY   42  32  68 NE8       30.07F
LAND O LAKES   CLOUDY    41  32  70 NE6       30.10F
RHINELANDER    CLOUDY    48  36  63 NE8       30.05F
PHILLIPS       CLOUDY    47  37  66 NE13      30.03S
ANTIGO         PTSUNNY   53  37  56 E10       30.04S
TOMAHAWK       CLOUDY    53  37  54 NE7       30.03F
MERRILL        MOSUNNY   60  42  52 E3        30.00F
$$

WIZ013-073-240000-
NORTHEAST WISCONSIN

CITY           SKY/WX    TMP DP  RH WIND       PRES   REMARKS
IRON MOUNTAIN  PTSUNNY   42  26  53 E8        30.11S
MARINETTE      MOSUNNY   39  30  70 E15G23    30.14S
OCONTO         SUNNY     41  30  65 E15G21    30.12R
$$

WIZ017-030-035>037-045-240000-
CENTRAL WISCONSIN

CITY           SKY/WX    TMP DP  RH WIND       PRES   REMARKS
MEDFORD        CLOUDY    61  40  44 CALM      29.98F
WAUSAU         CLOUDY    59  42  53 SE13      29.99S
MOSINEE        MOSUNNY   57  43  58 SE12G17   30.01S
MARSHFIELD     MOSUNNY   68  36  30 N3        29.96F
WISC RAPIDS    MOSUNNY   64  45  49 SE15      30.00S
STEVENS POINT  MOSUNNY   55  41  58 E15       30.02S
WAUPACA        SUNNY     57  41  55 E10G17    30.05S
SHAWANO        SUNNY     50  37  60 SE10      30.09R
CLINTONVILLE   MOSUNNY   50  36  57 E9        30.07R
WAUTOMA        MOSUNNY   58  44  60 E12G21    30.03R
$$

WIZ038-039-048-051-240000-
FOX VALLEY

CITY           SKY/WX    TMP DP  RH WIND       PRES   REMARKS
NWS GREEN BAY  SUNNY     47  38  71 NE17      30.10R
APPLETON       MOSUNNY   52  37  58 E9        30.05R
OSHKOSH        MOSUNNY   51  40  65 E14       30.05R
FOND DU LAC    SUNNY     51  36  56 E15       30.06R
$$

WIZ022-050-052-240000-
EAST CENTRAL WISCONSIN

CITY           SKY/WX    TMP DP  RH WIND       PRES   REMARKS
EPHRAIM        FAIR      40  31  68 NE7       30.12S
WASHINGTON ISL MOCLDY    40  24  54 NE9       30.14S
STURGEON BAY   MOSUNNY   41  30  65 NE13      30.12S
MANITOWOC      SUNNY     41  32  70 NE10      30.12R
SHEBOYGAN      SUNNY     41  34  76 NE20      30.10S
$$

LMZ563-521-522-541>543-240000-
LAKESHORE

STATION/POSITION TIME  TEMP    WIND        PRES    VSBY  WAVE
                       AIR SEA DIR/SP/G                  HT/PER
                 (UTC) (F)     (DEG/KT/KT) (MB)    (MI)  (FT/S)
SHEBOYGAN LKSHOR 2300   38      30/ 16/ 17 1019.7R
KEWAUNEE LKSHORE 2248   39      50/ 15/ 19 1019.4S
NORTHPORT PIER   2240   39      80/  9/ 11 1020.7R
N MID LAKE BUOY  2250   37 37   70/  6/  8 1022.0S         1/ 4
CHAMBERS ISLAND  2240   38      40/ 14/ 17 1020.3R
MENOMINEE LKSHOR 2248   39      40/ 17/ 19 1019.6S
$$



USA.gov is the U.S. government's official web portal to all federal, state and local government web resources and services.